World > North America > United States > Mississippi > Shannon   Town of Shannon, MS

Shannon, MS Hourly Weather Updates

Feedback E-mail the Weather

Quick Clicks

Shannon, MS Weather Maps

°F °C°F °C
Shannon Weather Map
UTC Time: 6/17/2024, 22:27
Your Time:

Shannon, MS Regional Weather

Expires:202406172300;;197543
ASUS44 KJAN 172210
RWRMS 

MISSISSIPPI HOURLY WEATHER ROUNDUP
NATIONAL WEATHER SERVICE JACKSON MS
500 PM CDT MON JUN 17 2024

NOTE: "FAIR: INDICATES FEW OR NO CLOUDS BELOW 12,000 FEET WITH NO
SIGNIFICANT WEATHER AND/OR OBSTRUCTIONS TO VISIBILITY.


MSZ003>006-009-014>017-022>024-029>033-037>039-172300-
NORTHEAST MISSISSIPPI
  
CITY           SKY/WX    TMP DP  RH WIND       PRES   REMARKS
ABERDEEN       PTSUNNY   88  75  66 SE5       29.99F HX  97           
COLUMBUS AFB   PTSUNNY   90  72  54 SE10      29.94F HX  97           
CORINTH        PTSUNNY   88  73  62 SE16      29.99R HX  96           
GOLDN TRIANGLE PTSUNNY   89  72  56 SE13      29.99S HX  96           
IUKA           CLOUDY    81  77  88 CALM      30.01F                  
LOUISVILLE     CLOUDY    86  73  66 SE3       30.03S HX  93           
STARKVILLE     CLOUDY    86  75  70 S8        29.97S HX  95           
TUPELO         PTSUNNY   87  73  62 E7        29.98F HX  94           
$$


SKY/WX - Weather  TMP - Temperature  DP - Dew Point  RH - Humidity
WIND - Wind Direction/Speed PRES - Barometric Pressure VSB - Visibility
WCI - Wind Chill Index E13G22 Wind - East Wind 13 mph/Gusts of 22 mph

Trending Headlines

Trending Entertainment Headlines

Shannon Radar Loop

Use the map search tool if you want to place a location marker on the radar map...

Shannon Quick Facts

National Two Day Weather Forecast


E-mail the Shannon Weather Forecast

Voice your opinion or tell us about page issues...